Etusivu
METAR-TAF:

METAR-TAF

Lentoasemat :

Öljynporauslautta

Goeree Le, Alankomaat

Leveyspiiri: 51-55-33N, Pituuspiiri: 3-40-12E, korkeus merenpinnasta: 19 m

Tämänhetkinen sää

Tämä raportti tehtiin 39 minuuttia sitten, kello 20.25 UTC
Tuuli 28 kn lännestä/lounaasta
Lämpötila 18°C
Kosteus 77%
Ilmanpaine 1008 hPa
Näkyvyys 10 km tai enemmän

METAR: EHSC 182025Z AUTO 24028KT 9999 ///////// 18/14 Q1008 W20/H19

Aika: 23:04 (21:04 UTC)


TAF: puuttuu

Säähavainnot ja -ennusteet yli 4000 lentoasemalta (METAR- ja TAF-raportit).

Käytössä olevat sääasemat on merkitty karttaan keltaisilla ja punaisilla pisteillä.

Aseta hiiri pisteen päälle nähdäksesi sääaseman nimen.

Klikkaa sitten nähdäksesi säähavainnot ja -ennusteet.

Kartan vaihtaminen: klikkaa mustalla rastilla varustettuja vihreitä pisteitä, niin voit zoomata sisään; viivalla varustettua vihreää pistettä, niin voit zoomata ulos tai vihreitä nuolia, niin pääset viereisille kartoille.


METAR-TAF: